(232721) = 2009 AQ1 = 2004 CC6

Discovered at Catalina on 2004-02-10 by CSS.

Orbit

Orbit type: Main Belt

Note: WebGL enabled browser required.

epoch2023-09-13.0
epoch JD2460200.5
perihelion date2019-02-21.15990
perihelion JD2458535.65990
argument of perihelion (°)94.74359
ascending node (°)316.81888
inclination (°)9.00580
eccentricity0.0755814
perihelion distance (AU)2.8486818
Tisserand w.r.t. Jupiter3.2
ΔV w.r.t. Earth (km/sec)10.9
semimajor axis (AU)3.0815930
mean anomaly (°)303.32867
mean daily motion (°/day)0.18219690
aphelion distance (AU)3.315
period (years)5.41
P-vector [x]0.61325413
P-vector [y]0.64837958
P-vector [z]0.45113556
Q-vector [x]-0.78258878
Q-vector [y]0.57619404
Q-vector [z]0.23570155
absolute magnitude15.67
phase slope0.15
uncertainty0
referenceMPEC 2023-Y111
observations used437
oppositions15
arc length (days)11299
first opposition used1993
last opposition used2023
residual rms (arc-secs)0.79
perturbers coarse indicatorM-v
perturbers precise indicator003Ek
first observation date used1993-01-22.0
last observation date used2023-12-30.0
computer nameMPCLINUX
JD of orbit computation2456760.651625
perihelion JD uncertainty (days)6.3076E-04
argument of perihelion uncertainty (°)1.3420E-04
ascending node uncertainty (°)4.2609E-05
inclination uncertainty (°)9.9211E-06
eccentricity uncertainty 7.0375E-08
perihelion distance uncertainty (AU)2.3438E-07
Minimum Orbit Intersection Distances (in AU)
for orbit epoch: 2460200.5, reference: E2023-YB1
Mercury2.53796
Venus2.14194
Earth1.8769
Mars1.3294
Jupiter1.96815
Saturn6.13646
Uranus15.2796
Neptune26.9848

Observations

447 total observations over interval: 1993 01 22.36284 – 2023 12 30.232694
These data are available for download (format description).

Date (UT) J2000 RA J2000 Dec Magn Location Ref
1993 01 22.36284 08 49 29.24 +20 18 32.1 19.7 V 691 – Steward Observatory, Kitt Peak-Spacewatch MPS 312336
1993 01 22.39677 08 49 27.34 +20 18 33.4   691 – Steward Observatory, Kitt Peak-Spacewatch MPS 312336
1993 01 22.43058 08 49 25.40 +20 18 35.6   691 – Steward Observatory, Kitt Peak-Spacewatch MPS 312336
2001 08 16.26935 21 24 26.99 -14 25 08.6 19.2   704 – Lincoln Laboratory ETS, New Mexico MPS 312336
2001 08 16.28163 21 24 26.28 -14 25 10.1 19.9   704 – Lincoln Laboratory ETS, New Mexico MPS 312336
2001 08 16.29389 21 24 25.80 -14 25 09.7 20.1   704 – Lincoln Laboratory ETS, New Mexico MPS 312336
2001 08 16.30623 21 24 25.12 -14 25 10.4 19.8   704 – Lincoln Laboratory ETS, New Mexico MPS 312336
2001 08 25.22848 21 17 05.68 -14 36 05.4 20.5 V 691 – Steward Observatory, Kitt Peak-Spacewatch MPS 312336
2001 08 25.25151 21 17 04.57 -14 36 06.5 20.7 V 691 – Steward Observatory, Kitt Peak-Spacewatch MPS 312336
2001 08 25.27553 21 17 03.43 -14 36 08.3 20.7 V 691 – Steward Observatory, Kitt Peak-Spacewatch MPS 312336
2001 09 22.10685 21 01 24.51 -14 44 15.6 21.4 V 691 – Steward Observatory, Kitt Peak-Spacewatch MPS 312336
2001 09 22.12952 21 01 24.11 -14 44 14.2 21.2 V 691 – Steward Observatory, Kitt Peak-Spacewatch MPS 312336
2001 09 22.15184 21 01 23.69 -14 44 13.1 21.4 V 691 – Steward Observatory, Kitt Peak-Spacewatch MPS 312336
2002 11 12.22198 02 55 26.11 +30 59 46.3 19.1 R 699 – Lowell Observatory-LONEOS MPS 312336
2002 11 12.23962 02 55 25.25 +30 59 41.6   699 – Lowell Observatory-LONEOS MPS 312336
2002 11 12.25726 02 55 24.06 +30 59 37.3   699 – Lowell Observatory-LONEOS MPS 312336
2002 11 12.27491 02 55 23.11 +30 59 34.5   699 – Lowell Observatory-LONEOS MPS 312336
2002 11 13.38098 02 54 21.99 +30 55 13.6   644 – Palomar Mountain/NEAT MPS 312336
2002 11 13.40394 02 54 20.70 +30 55 08.6 19.6 R 644 – Palomar Mountain/NEAT MPS 312336
2002 11 13.42672 02 54 19.42 +30 55 03.0 19.6 R 644 – Palomar Mountain/NEAT MPS 312336
2002 12 11.14904 02 34 16.29 +28 32 26.5 20.1 R 644 – Palomar Mountain/NEAT MPS 312336
2002 12 11.17029 02 34 15.69 +28 32 19.6 20.2 R 644 – Palomar Mountain/NEAT MPS 312336
2002 12 11.19148 02 34 15.16 +28 32 12.9 20.2 R 644 – Palomar Mountain/NEAT MPS 312336
2004 02 10.34558 09 30 18.91 +13 55 11.3 19.5   644 – Palomar Mountain/NEAT MPS 98935
2004 02 10.37414 09 30 17.33 +13 55 13.9 19.4   644 – Palomar Mountain/NEAT MPS 98935
2004 02 10.39525 09 30 16.19 +13 55 15.7 19.5   644 – Palomar Mountain/NEAT MPS 98935
2004 02 10.39901 09 30 15.96 +13 55 15.7 20.4 V 703 – Catalina Sky Survey MPS 98935
2004 02 10.41543 09 30 15.10 +13 55 17.8 20.0 V 703 – Catalina Sky Survey MPS 98935
2004 02 10.43181 09 30 14.06 +13 55 18.1 20.0 V 703 – Catalina Sky Survey MPS 98935
2004 02 10.44827 09 30 13.29 +13 55 21.0 19.6 V 703 – Catalina Sky Survey MPS 98935
2004 02 11.29703 09 29 28.42 +13 56 43.3 19.6   644 – Palomar Mountain/NEAT MPS 98935
2004 02 11.32235 09 29 27.02 +13 56 45.8 19.5   644 – Palomar Mountain/NEAT MPS 98935
2004 02 11.35870 09 29 25.06 +13 56 49.1 19.5   644 – Palomar Mountain/NEAT MPS 98935
2004 02 12.20553 09 28 40.34 +13 58 10.4 20.0 V 691 – Steward Observatory, Kitt Peak-Spacewatch MPS 98935
2004 02 12.23400 09 28 38.78 +13 58 13.0 20.0 V 691 – Steward Observatory, Kitt Peak-Spacewatch MPS 98935
2004 02 12.26646 09 28 37.03 +13 58 16.1 20.0 V 691 – Steward Observatory, Kitt Peak-Spacewatch MPS 98935
2007 09 12.28979 00 33 07.74 +14 22 52.2 20.4 V 703 – Catalina Sky Survey MPS 312336
2007 09 12.29736 00 33 07.41 +14 22 53.2 19.9 V 703 – Catalina Sky Survey MPS 312336
2007 09 12.30491 00 33 06.91 +14 22 51.3 19.7 V 703 – Catalina Sky Survey MPS 312336
2007 09 12.31243 00 33 06.58 +14 22 49.4 20.5 V 703 – Catalina Sky Survey MPS 312336
2007 10 13.21487 00 08 47.72 +13 00 14.5 19.6 V 703 – Catalina Sky Survey MPS 312336
2007 10 13.22238 00 08 47.40 +13 00 12.8 19.9 V 703 – Catalina Sky Survey MPS 312336
2007 10 13.22990 00 08 47.00 +13 00 11.4 19.7 V 703 – Catalina Sky Survey MPS 312336
2007 10 13.23741 00 08 46.64 +13 00 07.8 20.4 V 703 – Catalina Sky Survey MPS 312336
2008 12 06.31884 07 33 44.17 +29 39 10.0   704 – Lincoln Laboratory ETS, New Mexico MPS 407449
2008 12 06.33146 07 33 43.60 +29 39 10.5   704 – Lincoln Laboratory ETS, New Mexico MPS 407449
2008 12 06.35672 07 33 42.79 +29 39 11.2   704 – Lincoln Laboratory ETS, New Mexico MPS 407449
2008 12 31.26638 07 13 33.37 +29 48 34.0 19.4   704 – Lincoln Laboratory ETS, New Mexico MPS 312031
2008 12 31.27912 07 13 32.62 +29 48 34.3 19.5   704 – Lincoln Laboratory ETS, New Mexico MPS 312031
2008 12 31.29196 07 13 31.80 +29 48 34.4 19.8   704 – Lincoln Laboratory ETS, New Mexico MPS 312031
2008 12 31.30510 07 13 31.00 +29 48 34.3 19.4   704 – Lincoln Laboratory ETS, New Mexico MPS 312031
2008 12 31.31776 07 13 30.18 +29 48 32.9 20.1   704 – Lincoln Laboratory ETS, New Mexico MPS 312031
2009 01 01.40093 07 12 25.70 +29 48 01.7 19.4 V G96 – Mt. Lemmon Survey MPS 312031
2009 01 01.40889 07 12 25.20 +29 48 01.4 19.4 V G96 – Mt. Lemmon Survey MPS 312031
2009 01 01.41676 07 12 24.73 +29 48 01.2 19.4 V G96 – Mt. Lemmon Survey MPS 312031
2009 01 01.42466 07 12 24.26 +29 48 00.7 19.4 V G96 – Mt. Lemmon Survey MPS 312031
2009 01 03.05866 07 10 46.56 +29 47 01.3 19.6 V 595 – Farra d'Isonzo MPS 271935
2009 01 03.06502 07 10 46.24 +29 47 00.5   595 – Farra d'Isonzo MPS 271935
2009 01 03.07134 07 10 45.81 +29 47 00.6   595 – Farra d'Isonzo MPS 271935
2009 01 04.01837 07 09 49.11 +29 46 20.1   595 – Farra d'Isonzo MPS 271935
2009 01 04.02807 07 09 48.46 +29 46 18.5 19.8 V 595 – Farra d'Isonzo MPS 271935
2009 01 04.03767 07 09 47.91 +29 46 18.1   595 – Farra d'Isonzo MPS 271935
2009 01 30.21435 06 46 30.88 +28 56 21.7 19.4   704 – Lincoln Laboratory ETS, New Mexico MPS 312031
2009 01 30.22681 06 46 30.35 +28 56 18.5 19.5   704 – Lincoln Laboratory ETS, New Mexico MPS 312031
2009 01 30.23926 06 46 29.73 +28 56 18.1 19.9   704 – Lincoln Laboratory ETS, New Mexico MPS 312031
2009 01 30.25149 06 46 29.21 +28 56 14.9 19.6   704 – Lincoln Laboratory ETS, New Mexico MPS 312031
2009 01 30.26375 06 46 28.83 +28 56 13.1 20.1   704 – Lincoln Laboratory ETS, New Mexico MPS 312031
2009 05 13.14898 07 38 41.74 +22 33 16.2 22.2 V G96 – Mt. Lemmon Survey MPS 312336
2009 05 13.15507 07 38 42.21 +22 33 14.5 22.2 V G96 – Mt. Lemmon Survey MPS 312336
2009 05 13.16118 07 38 42.68 +22 33 12.8 22.1 V G96 – Mt. Lemmon Survey MPS 312336
2009 05 13.16734 07 38 43.15 +22 33 11.4 20.8 V G96 – Mt. Lemmon Survey MPS 312336
2012 08 08.50576 22 24 07.636 -06 59 20.42 19.9 i F51 – Pan-STARRS 1, Haleakala MPS 429290
2012 08 08.51732 22 24 07.116 -06 59 21.19 19.9 i F51 – Pan-STARRS 1, Haleakala MPS 429290
2012 08 10.50637 22 22 39.374 -07 01 43.18 19.9 r F51 – Pan-STARRS 1, Haleakala MPS 429922
2012 08 10.51671 22 22 38.891 -07 01 43.96 19.9 r F51 – Pan-STARRS 1, Haleakala MPS 429922
2012 08 11.60643 22 21 49.68 -07 03 05.2 19.6 V E12 – Siding Spring Survey MPS 429922
2012 08 11.61926 22 21 49.17 -07 03 07.2 19.7 V E12 – Siding Spring Survey MPS 429922
2012 08 11.63218 22 21 48.56 -07 03 06.7 19.2 V E12 – Siding Spring Survey MPS 429922
2012 08 11.64496 22 21 47.84 -07 03 09.1 19.5 V E12 – Siding Spring Survey MPS 429922
2012 08 21.44323 22 13 58.359 -07 19 07.47 20.3 g F51 – Pan-STARRS 1, Haleakala MPS 430910
2012 08 21.45459 22 13 57.776 -07 19 08.68 20.1 g F51 – Pan-STARRS 1, Haleakala MPS 430910
2012 08 26.22205 22 10 00.98 -07 28 18.6 19.5 V G96 – Mt. Lemmon Survey MPS 430910
2012 08 26.23135 22 10 00.51 -07 28 19.5 19.4 V G96 – Mt. Lemmon Survey MPS 430910
2012 08 26.24071 22 10 00.04 -07 28 21.1 19.3 V G96 – Mt. Lemmon Survey MPS 430910
2012 08 26.25000 22 09 59.54 -07 28 22.1 19.6 V G96 – Mt. Lemmon Survey MPS 430910
2012 08 27.19706 22 09 12.47 -07 30 10.8 18.3 K W91 – VHS-VISTA, Cerro Paranal MPS 678198
2012 08 27.20140 22 09 12.24 -07 30 11.3 18.5 J W91 – VHS-VISTA, Cerro Paranal MPS 678198
2012 08 27.20362 22 09 12.13 -07 30 11.5 18.4 J W91 – VHS-VISTA, Cerro Paranal MPS 678198
2012 08 27.20751 22 09 11.93 -07 30 12.0 18.7 Y W91 – VHS-VISTA, Cerro Paranal MPS 678198
2012 08 27.20962 22 09 11.82 -07 30 12.3 18.8 Y W91 – VHS-VISTA, Cerro Paranal MPS 678198
